Location: York
(31.8935°S, 116.7682°E)
Time: 05:19:42
(UTC+08:00)

Vanguard 1 - All Passes

Search period start: 14 June 2021 00:00
Search period end: 24 June 2021 00:00
Orbit: 650 x 3832 km, 34.2° (Epoch: 12 June)

Date Brightness Start Highest point End Pass type
(mag) Time Alt. Az. Time Alt. Az. Time Alt. Az.
14 Jun - 09:24:49 10° NNW 09:29:07 26° NE 09:35:13 10° E daylight
14 Jun - 11:42:28 10° WNW 11:49:02 87° NNE 12:01:26 10° ESE daylight
14 Jun - 14:02:15 10° W 14:11:48 82° S 14:30:10 10° E daylight
14 Jun - 16:22:53 10° WSW 16:36:25 72° NNW 16:58:51 10° NE daylight
14 Jun - 18:45:59 10° W 19:01:56 38° NW 19:22:10 10° NNE visible
14 Jun - 21:26:27 10° NW 21:27:08 10° NW 21:27:51 10° NW visible
15 Jun - 09:44:50 10° NNW 09:49:37 39° NE 09:57:02 10° E daylight
15 Jun - 12:03:21 10° W 12:10:09 84° S 12:23:12 10° E daylight
15 Jun - 14:23:13 10° WSW 14:33:11 86° SSE 14:52:12 10° ENE daylight
15 Jun - 16:44:01 10° WSW 16:57:49 63° NNW 17:19:58 10° NE daylight
15 Jun - 19:08:15 10° W 19:23:14 30° NW 19:41:29 10° NNE visible
16 Jun - 10:05:13 10° NW 10:10:17 55° NNE 10:18:38 10° ESE daylight
16 Jun - 12:24:15 10° W 12:31:22 79° S 12:45:03 10° E daylight
16 Jun - 14:44:11 10° WSW 14:54:33 87° NNW 15:14:06 10° ENE daylight
16 Jun - 17:05:16 10° WSW 17:19:12 53° NNW 17:40:43 10° NE visible
16 Jun - 19:31:21 10° W 19:44:33 22° NW 19:59:57 10° N visible
17 Jun - 08:09:32 10° N 08:11:55 14° NE 08:14:36 10° ENE daylight
17 Jun - 10:25:50 10° WNW 10:31:07 73° NNE 10:40:08 10° ESE daylight
17 Jun - 12:45:12 10° W 12:52:37 78° S 13:06:59 10° E daylight
17 Jun - 15:05:09 10° WSW 15:15:54 79° NNW 15:35:48 10° ENE daylight
17 Jun - 17:26:43 10° W 17:40:34 43° NNW 18:01:04 10° NNE visible
17 Jun - 19:56:09 10° WNW 20:05:56 15° NW 20:16:47 10° NNW visible
18 Jun - 08:28:46 10° NNW 08:32:25 23° NE 08:36:59 10° E daylight
18 Jun - 10:46:36 10° WNW 10:52:04 89° NNE 11:01:38 10° ESE daylight
18 Jun - 13:06:07 10° W 13:13:53 81° S 13:28:57 10° E daylight
18 Jun - 15:26:09 10° WSW 15:37:13 69° NNW 15:57:13 10° NE daylight
18 Jun - 17:48:28 10° W 18:01:58 35° NW 18:20:54 10° NNE visible
19 Jun - 08:48:49 10° NW 08:53:00 36° NNE 08:58:40 10° E daylight
19 Jun - 11:07:28 10° W 11:13:08 81° S 11:23:14 10° E daylight
19 Jun - 13:27:02 10° WSW 13:35:08 86° SSE 13:50:52 10° ENE daylight
19 Jun - 15:47:13 10° WSW 15:58:32 58° NNW 16:18:19 10° NE daylight
19 Jun - 18:10:46 10° W 18:23:22 27° NW 18:40:06 10° N visible
20 Jun - 09:09:14 10° NW 09:13:42 53° NNE 09:20:06 10° ESE daylight
20 Jun - 11:28:23 10° W 11:34:15 76° S 11:44:53 10° E daylight
20 Jun - 13:47:56 10° WSW 13:56:21 85° NNW 14:12:40 10° ENE daylight
20 Jun - 16:08:26 10° W 16:19:53 48° NNW 16:39:02 10° NE daylight
20 Jun - 18:33:59 10° WNW 18:44:50 19° NW 18:58:18 10° N visible
21 Jun - 07:13:01 10° N 07:15:12 13° NE 07:17:27 10° ENE daylight
21 Jun - 09:29:54 10° WNW 09:34:32 74° NNE 09:41:26 10° ESE daylight
21 Jun - 11:49:17 10° W 11:55:24 75° S 12:06:39 10° E daylight
21 Jun - 14:08:51 10° WSW 14:17:34 75° NNW 14:34:17 10° ENE daylight
21 Jun - 16:29:52 10° W 16:41:15 39° NNW 16:59:19 10° NNE daylight
21 Jun - 18:59:27 10° WNW 19:06:25 13° NW 19:14:18 10° NNW visible
22 Jun - 07:32:21 10° NNW 07:35:52 22° NNE 07:39:39 10° E daylight
22 Jun - 09:50:43 10° WNW 09:55:28 88° S 10:02:47 10° ESE daylight
22 Jun - 12:10:11 10° WSW 12:16:33 79° S 12:28:25 10° E daylight
22 Jun - 14:29:49 10° WSW 14:38:47 64° NNW 14:55:37 10° NE daylight
22 Jun - 16:51:39 10° W 17:02:40 30° NNW 17:19:03 10° NNE daylight
23 Jun - 07:52:29 10° NW 07:56:34 35° NNE 08:01:11 10° E daylight
23 Jun - 10:11:36 10° W 10:16:29 77° S 10:24:11 10° E daylight
23 Jun - 12:31:04 10° WSW 12:37:40 87° S 12:50:10 10° ENE daylight
23 Jun - 14:50:52 10° W 15:00:01 52° NNW 15:16:38 10° NE daylight
23 Jun - 17:14:04 10° W 17:24:09 23° NW 17:38:01 10° N visible
